Regional Weather Roundup
Issued by NWS Goodland, KS

Home | Current Version | Previous Version | Text Only | Print | Product List | Glossary On
Versions: 1 2 3 4 5 6 7 8 9 10 11 12 13 14 15 16 17 18 19 20 21 22 23 24 25 26 27 28 29 30 31 32 33 34 35 36 37 38 39 40 41 42 43 44 45 46 47 48 49 50
000
ASUS43 KGLD 251808
RWRGLD

GOODLAND FORECAST AREA HOURLY WEATHER ROUNDUP
NATIONAL WEATHER SERVICE GOODLAND KS
1100 AM MST SUN JAN 25 2015

...OFFICIAL OBSERVATIONS...

CITY           SKY/WX    TMP DP  RH WIND       PRES   REMARKS
GOODLAND KS    SUNNY     50  26  39 NW23G38   30.12S
HILL CITY KS   SUNNY     49  25  39 N26G33    30.10R
IMPERIAL NEB   SUNNY     49  26  41 N22       30.10F
MCCOOK NEB     SUNNY     49  23  36 NW30G40   30.10R
AKRON CO       CLOUDY    44  30  57 NW8       30.15F
BURLINGTON CO  PTSUNNY   48  28  46 N25G35    30.14R
LIMON CO       CLOUDY    45  27  49 W6        30.19R
$$

...UNOFFICIAL OBSERVATIONS...

CITY           SKY/WX    TMP DP  RH WIND       PRES   REMARKS
COLBY KS       SUNNY     48  32  53 NW22G30   30.13S
GOVE KS          N/A     48  32  54 MISG        N/A
NORTON KS      SUNNY     48  23  37 NW22G33   30.08S
SHARON SPRINGS   N/A     52  29  41 N23G33      N/A
KIT CARSON CO    N/A     49  29  45 MISG        N/A
YUMA CO          N/A     44  31  60 W15         N/A
$$



USA.gov is the U.S. government's official web portal to all federal, state and local government web resources and services.